Location: *
(43.9900°N, 3.4811°E)
Time: 03:32:09
(UTC+00:00)

Cosmos 2298 Rocket - Pass Details

Date: 25 August 2019
Orbit: 775 x 784 km, 74.0° (Epoch: 21 September)

Event Time Altitude Azimuth Distance (km) Brightness Sun altitude
Exits shadow 20:53:38 23° 199° (SSW) 1,628 5.5 -22.6°
Maximum altitude 20:57:05 90° 296° (WNW) 788 3.9 -23.0°
Drops below altitude 10° 21:02:26 10° 21° (NNE) 2,348 6.8 -23.7°
Sets 21:04:50 0° 21° (NNE) 3,282 7.6 -24.0°
